Regional Weather Roundup
Issued by NWS

Home | Current Version | Previous Version | Text Only | Print | Product List | Glossary Off
Versions: 1 2 3 4 5 6 7 8 9 10 11 12 13 14 15 16 17 18 19 20 21 22 23 24 25 26 27

000
ASUS45 KPSR 190210
RWRAZ

ARIZONA HOURLY REGIONAL WEATHER ROUNDUP
NATIONAL WEATHER SERVICE PHOENIX AZ
700 PM MST SAT NOV 18 2017

NOTE: FAIR INDICATES FEW OR NO CLOUDS BELOW 12,000 FEET WITH NO
SIGNIFICANT WEATHER AND/OR OBSTRUCTIONS TO VISIBILITY.

AZZ001>003-036-190300-
NORTHWEST ARIZONA

CITY           SKY/WX    TMP DP  RH WIND       PRES   REMARKS
BULLHEAD CITY  CLEAR     63  16  16 N17       30.16S
KINGMAN        CLEAR     44  12  27 E8        30.22R
$$

AZZ004>008-015-016-018-190300-
NORTH CENTRAL ARIZONA

CITY           SKY/WX    TMP DP  RH WIND       PRES   REMARKS
GRAND CANYON   PTCLDY    34   1  24 NE6       30.30S WCI  29
WILLIAMS       CLEAR     37   1  22 S10       30.28S WCI  30
PRESCOTT       CLEAR     45  10  24 S7        30.22S
FLAGSTAFF      MOCLDY    29   1  30 NE3       30.32R
PAYSON         CLEAR     46   1  15 MISG      30.25R
PAGE           PTCLDY    41  12  30 CALM      30.32F
$$

AZZ009>014-017-190300-
NORTHEAST ARIZONA

CITY           SKY/WX    TMP DP  RH WIND       PRES   REMARKS
WINSLOW        MOCLDY    30  -4  23 W6        30.32R WCI  24
SAINT JOHNS    PTCLDY    36   9  32 CALM      30.29S
WINDOW ROCK    PTCLDY    37   6  27 NE6       30.34S WCI  32
SHOW LOW       PTCLDY    34   3  27 CALM      30.33R
$$

AZZ540-542>544-546-548-190300-
GREATER PHOENIX AREA

CITY           SKY/WX    TMP DP  RH WIND       PRES   REMARKS
PHOENIX        PTCLDY    69  31  24 SW5       30.04R
BUCKEYE        CLEAR     64  19  17 NW7       30.06S
GLENDALE       PTCLDY    70  28  21 CALM      30.06R
LUKE AFB       CLEAR     64  32  30 NW6       30.03S
DEER VALLEY    CLEAR     66  17  15 N5        30.05S
SCOTTSDALE     CLEAR     69  29  22 CALM      30.07S
MESA-FALCON    PTCLDY    72  30  21 CALM      30.07R
MESA-GATEWAY   CLEAR     64  27  24 CALM      30.06S
$$

AZZ539-553-190300-
SOUTHWEST MARICOPA COUNTY AND PINAL COUNTY

CITY           SKY/WX    TMP DP  RH WIND       PRES   REMARKS
CASA GRANDE    NOT AVBL
$$

AZZ503-504-507>509-190300-
SOUTHEAST ARIZONA

CITY           SKY/WX    TMP DP  RH WIND       PRES   REMARKS
TUCSON         CLEAR     69  26  20 NW8       30.10R
DAVIS-MONTHAN  CLEAR     66  26  22 NW6       30.08R
RYAN FIELD     CLEAR     63  28  27 MISG      30.11R
NOGALES        CLEAR     65  30  27 N6        30.11R
SIERRA VISTA   CLEAR     59  26  27 CALM      30.18R
DOUGLAS        CLEAR     59  24  26 E9        30.15R
SAFFORD        CLEAR     56  21  25 N5        30.12R
$$

AZZ532-190300-
SOUTHWEST ARIZONA

CITY           SKY/WX    TMP DP  RH WIND       PRES   REMARKS
YUMA           PTCLDY    69  17  13 N10       30.08R
$$

CAZ041-043-047-048-061-525>527-560>570-190300-
SOUTHERN CALIFORNIA

CITY           SKY/WX    TMP DP  RH WIND       PRES   REMARKS
DOWNTOWN L.A.  MOCLDY    65  49  56 CALM      30.05S
L.A. AIRPORT   MOCLDY    65  53  65 W10       30.06S
SAN DIEGO      MOCLDY    65  59  81 N7        30.07R
BURBANK        PTCLDY    72  25  17 NW8       30.06R
ONTARIO        MOCLDY    69  27  20 W3        30.07R
RIVERSIDE      MOCLDY    69  19  15 E6        30.07S
PALM SPRINGS   PTCLDY    73  15  11 NW10      30.12R
EL CENTRO NAS  PTCLDY    65  29  25 CALM      30.10S
IMPERIAL       PTCLDY    65  38  36 CALM      30.08R
BLYTHE         CLEAR     64  11  12 N9        30.13R
NEEDLES        PTCLDY    63  12  13 N9        30.17R
$$

NVZ020-UTZ003-190300-
SOUTHERN NEVADA-UTAH

CITY           SKY/WX    TMP DP  RH WIND       PRES   REMARKS
LAS VEGAS      PTCLDY    57  11  16 CALM      30.23S
SALT LAKE CITY PTCLDY    37  26  64 N3        30.37S
$$

NMZ009-TXZ055-190300-
NEW MEXICO-WEST TEXAS

CITY           SKY/WX    TMP DP  RH WIND       PRES   REMARKS
ALBUQUERQUE    CLEAR     44   6  21 N7        30.34R
EL PASO        PTCLDY    56  27  32 E9        30.26R
$$


........................KEY........................
SKY/WX - SKY CONDITION/WEATHER
TMP    - TEMPERATURE IN FAHRENHEIT
DP     - DEW POINT IN FAHRENHEIT
RH     - RELATIVE HUMIDITY IN PERCENT
WIND   - DIRECTION AND SPEED IN MILES PER HOUR (MPH)
VRB    - VARIABLE WIND DIRECTION
PRES   - MEAN SEA LEVEL PRESSURE IN INCHES OF MERCURY
         F - FALLING PRESSURE   R - RISING PRESSURE
         S - STEADY PRESSURE
VSB    - VISIBILITY IN MILES
HX     - HEAT INDEX IN FAHRENHEIT
WCI    - WIND CHILL INDEX IN FAHRENHEIT
TC     - TEMPERATURE IN CELSIUS WHICH IS ALSO KNOWN AS
         TEMPERATURE IN CENTIGRADE
AFB    - AIR FORCE BASE
         LUKE AFB IS LUKE AIR FORCE BASE
         DAVIS-MONTHAN IS DAVIS-MONTHAN AIR FORCE BASE
NAS    - NAVAL AIR STATION
         EL CENTRO NAS IS EL CENTRO NAVAL AIR STATION
N/A    - NOT AVAILABLE





USA.gov is the U.S. government's official web portal to all federal, state and local government web resources and services.